CW5917 Weather Reports


Display with metric or nautical units.
time (UTC)temp
F
wind
direction
speed
MPH
gust
MPH
rain 1hr
in
rain 24hr
in
rain mn
in
humidity
%
barometer
mb
20260902221035 85 294 2.0 4.0 0.00 0.00 0.00 71 1013.4
20260902220521 85 261 2.0 6.0 0.00 0.00 0.00 72 1013.1
20260902220037 85 261 2.0 6.0 0.00 0.00 0.00 72 1013.3
20260902215518 85 305 1.0 5.0 0.00 0.00 0.00 74 1013.4
20260902215033 85 287 3.0 5.0 0.00 0.00 0.00 72 1013.5
20260902214524 85 296 2.0 5.0 0.00 0.00 0.00 71 1013.3
20260902214059 85 241 2.0 5.0 0.00 0.00 0.00 72 1013.3
20260902213523 85 275 2.0 7.0 0.00 0.00 0.00 72 1013.3
20260902213057 85 233 4.0 7.0 0.00 0.00 0.00 72 1013.6
20260902212532 85 242 4.0 9.0 0.00 0.00 0.00 71 1013.7
20260902212038 85 238 4.0 8.0 0.00 0.00 0.00 71 1013.9
20260902211556 85 271 5.0 8.0 0.00 0.00 0.00 71 1013.7
20260902211032 86 241 3.0 8.0 0.00 0.00 0.00 71 1013.7
20260902210524 86 305 2.0 8.0 0.00 0.00 0.00 72 1013.5
20260902210018 86 269 3.0 8.0 0.00 0.00 0.00 71 1013.9
20260902205531 86 325 4.0 7.0 0.00 0.00 0.00 71 1014.0
20260902205017 86 249 3.0 7.0 0.00 0.00 0.00 70 1013.8
20260902204534 86 263 3.0 7.0 0.00 0.00 0.00 69 1013.7
20260902204046 86 240 3.0 7.0 0.00 0.00 0.00 69 1013.5
20260902203541 86 277 2.0 7.0 0.00 0.00 0.00 69 1013.5
20260902203028 87 233 5.0 8.0 0.00 0.00 0.00 68 1013.7
20260902202521 87 224 5.0 8.0 0.00 0.00 0.00 67 1013.5
20260902202032 87 238 6.0 10.0 0.00 0.00 0.00 68 1013.7
20260902201519 87 213 5.0 10.0 0.00 0.00 0.00 67 1013.9
20260902201033 87 235 5.0 9.0 0.00 0.00 0.00 70 1013.8
20260902200538 87 227 7.0 11.0 0.00 0.00 0.00 70 1013.7
20260902200027 87 175 8.0 11.0 0.00 0.01 0.00 68 1013.7
20260902195522 88 227 6.0 11.0 0.00 0.01 0.00 70 1013.9
20260902195038 88 219 7.0 11.0 0.00 0.01 0.00 69 1014.0
20260902194533 88 212 7.0 11.0 0.00 0.01 0.00 68 1014.0
20260902194019 88 220 5.0 9.0 0.00 0.01 0.00 70 1014.1
20260902193534 87 221 5.0 11.0 0.00 0.01 0.00 69 1014.1
20260902193021 87 222 7.0 11.0 0.00 0.01 0.00 69 1014.2
20260902192553 87 234 5.0 11.0 0.00 0.01 0.00 70 1014.1
20260902192022 87 215 7.0 11.0 0.00 0.01 0.00 69 1014.2
20260902191531 87 220 7.0 12.0 0.00 0.01 0.00 68 1014.0
20260902191037 87 222 7.0 10.0 0.00 0.01 0.00 69 1014.0
20260902190552 87 216 6.0 10.0 0.00 0.01 0.00 69 1014.0
20260902190034 87 233 6.0 10.0 0.00 0.01 0.00 68 1014.0
20260902185543 87 217 6.0 11.0 0.00 0.01 0.00 68 1013.9
20260902185019 87 250 8.0 11.0 0.00 0.01 0.00 67 1014.1
20260902184527 88 223 6.0 10.0 0.00 0.01 0.00 66 1014.1
20260902184021 88 225 6.0 12.0 0.00 0.01 0.00 69 1014.1
20260902183551 88 219 7.0 12.0 0.00 0.01 0.00 67 1014.1
20260902183032 88 230 8.0 12.0 0.00 0.01 0.00 68 1014.3
20260902182548 87 237 8.0 11.0 0.00 0.01 0.00 69 1014.2
20260902182042 87 220 6.0 12.0 0.00 0.01 0.00 69 1014.3
20260902181519 87 206 8.0 12.0 0.00 0.01 0.00 68 1014.3
20260902181027 87 219 6.0 8.0 0.00 0.01 0.00 69 1014.3
20260902180521 87 233 4.0 8.0 0.00 0.01 0.00 69 1014.1
20260902180017 87 229 4.0 8.0 0.00 0.01 0.00 71 1014.1
20260902175533 87 209 5.0 10.0 0.00 0.01 0.00 70 1014.2
20260902175018 87 236 5.0 10.0 0.00 0.01 0.00 70 1014.3
20260902174538 87 184 5.0 10.0 0.00 0.01 0.00 70 1014.4
20260902174026 87 213 6.0 10.0 0.00 0.01 0.00 71 1014.6
20260902173518 86 228 4.0 10.0 0.00 0.01 0.00 73 1014.5
20260902173052 86 192 6.0 9.0 0.00 0.01 0.00 71 1014.6
20260902172528 86 263 4.0 10.0 0.00 0.01 0.00 72 1014.5
20260902172022 86 246 4.0 8.0 0.00 0.01 0.00 74 1014.6
20260902171521 85 306 5.0 9.0 0.00 0.01 0.00 75 1014.7
20260902171032 84 205 5.0 7.0 0.00 0.01 0.00 77 1014.7
20260902170528 84 197 5.0 8.0 0.00 0.01 0.00 77 1014.8
20260902170026 83 191 4.0 9.0 0.00 0.01 0.00 77 1014.7
20260902165522 83 263 4.0 9.0 0.00 0.01 0.00 75 1014.7
20260902165018 83 244 6.0 10.0 0.00 0.01 0.00 75 1014.8
20260902164533 84 211 5.0 10.0 0.00 0.01 0.00 74 1014.8
20260902164017 84 206 4.0 10.0 0.00 0.01 0.00 74 1014.7
20260902163532 84 223 5.0 10.0 0.00 0.01 0.00 76 1014.9
20260902163031 83 260 3.0 9.0 0.00 0.01 0.00 74 1014.6
20260902162528 84 163 2.0 10.0 0.00 0.01 0.00 75 1014.6
20260902162023 84 240 5.0 10.0 0.00 0.01 0.00 77 1014.7
20260902161526 83 190 6.0 8.0 0.00 0.01 0.00 77 1014.7
20260902161042 82 163 4.0 7.0 0.00 0.01 0.00 79 1014.6
20260902160557 82 205 4.0 7.0 0.00 0.01 0.00 77 1014.7
20260902160030 82 176 5.0 7.0 0.00 0.01 0.00 80 1014.7
20260902155524 82 175 2.0 5.0 0.00 0.01 0.00 77 1014.9
20260902155034 82 210 3.0 5.0 0.00 0.01 0.00 79 1014.8
20260902154535 82 336 2.0 5.0 0.00 0.01 0.00 79 1015.0
20260902154032 82 185 1.0 3.0 0.00 0.01 0.00 77 1014.9
20260902153518 83 284 1.0 4.0 0.00 0.01 0.00 79 1014.7
20260902153038 81 284 2.0 5.0 0.00 0.01 0.00 81 1014.8
20260902152032 80 273 3.0 6.0 0.00 0.01 0.00 82 1014.8
20260902151519 80 266 3.0 6.0 0.00 0.01 0.00 81 1014.7
20260902151034 80 238 1.0 4.0 0.00 0.01 0.00 81 1014.7
20260902150519 80 238 2.0 4.0 0.00 0.01 0.00 82 1014.6
20260902150036 80 270 2.0 4.0 0.00 0.01 0.00 80 1014.5
20260902145518 80 96 1.0 2.0 0.00 0.01 0.00 81 1014.5
20260902145017 81 96 0.0 3.0 0.00 0.01 0.00 81 1014.4
20260902144554 80 96 1.0 6.0 0.00 0.01 0.00 83 1014.2
20260902144026 80 96 2.0 6.0 0.00 0.01 0.00 82 1014.3
20260902143523 80 108 3.0 7.0 0.00 0.01 0.00 83 1014.1
20260902143020 79 117 3.0 8.0 0.00 0.01 0.00 83 1014.1
20260902142533 79 103 5.0 10.0 0.00 0.01 0.00 82 1014.2
20260902142018 80 96 4.0 10.0 0.00 0.01 0.00 82 1014.3
20260902141517 79 67 2.0 8.0 0.00 0.01 0.00 82 1014.2
20260902141032 79 92 4.0 10.0 0.00 0.01 0.00 81 1014.3
20260902140541 78 101 5.0 11.0 0.00 0.01 0.00 82 1014.4
20260902140035 78 70 6.0 11.0 0.00 0.01 0.00 82 1014.3
20260902135531 78 140 7.0 11.0 0.00 0.01 0.00 83 1014.5
20260902135030 77 86 8.0 10.0 0.00 0.01 0.00 85 1014.7
20260902134541 77 102 6.0 10.0 0.00 0.01 0.00 86 1014.9
20260902134017 76 90 5.0 9.0 0.00 0.01 0.00 87 1015.1
20260902133521 76 118 4.0 10.0 0.00 0.01 0.00 88 1015.1
20260902133035 76 113 4.0 10.0 0.00 0.01 0.00 89 1015.2
20260902132538 75 93 5.0 9.0 0.00 0.01 0.00 90 1015.3
20260902132034 75 103 5.0 9.0 0.00 0.01 0.00 91 1015.3
20260902131534 75 122 4.0 7.0 0.00 0.01 0.00 91 1015.3
20260902131030 74 117 1.0 9.0 0.00 0.01 0.00 91 1015.3
20260902130529 74 123 5.0 9.0 0.00 0.01 0.00 92 1015.3
20260902130034 74 127 5.0 7.0 0.00 0.01 0.00 92 1015.2
20260902125518 74 114 4.0 7.0 0.00 0.01 0.00 92 1015.5
20260902125034 74 99 2.0 4.0 0.00 0.01 0.00 92 1015.5
20260902124524 74 99 1.0 3.0 0.00 0.01 0.00 92 1015.4
20260902124041 74 99 1.0 3.0 0.00 0.01 0.00 92 1015.4
20260902123535 74 99 1.0 2.0 0.00 0.01 0.00 92 1015.5
20260902123053 74 99 1.0 3.0 0.00 0.01 0.00 92 1015.5
20260902122538 73 99 0.0 3.0 0.00 0.01 0.00 92 1015.4
20260902122030 73 99 1.0 4.0 0.00 0.01 0.00 92 1015.2
20260902121528 73 99 2.0 4.0 0.00 0.01 0.00 92 1015.2
20260902121022 73 5 1.0 3.0 0.00 0.01 0.00 92 1015.2
20260902120534 73 5 2.0 3.0 0.00 0.01 0.00 92 1015.1
20260902120034 73 5 1.0 2.0 0.00 0.01 0.00 92 1015.3
20260902115531 73 5 0.0 1.0 0.00 0.01 0.00 92 1015.3
20260902115044 73 5 0.0 1.0 0.00 0.01 0.00 91 1015.2
20260902114538 73 5 0.0 1.0 0.00 0.01 0.00 92 1015.2
20260902114027 73 5 0.0 2.0 0.00 0.01 0.00 92 1015.2
20260902113522 73 5 2.0 4.0 0.00 0.01 0.00 91 1015.3
20260902113031 73 5 1.0 8.0 0.00 0.01 0.00 92 1015.0
20260902112525 73 338 2.0 8.0 0.00 0.01 0.00 91 1015.3
20260902112021 73 321 1.0 3.0 0.00 0.01 0.00 92 1014.9
20260902111518 73 321 2.0 3.0 0.00 0.01 0.00 91 1015.1
20260902111030 73 321 1.0 4.0 0.00 0.01 0.00 92 1014.8
20260902110523 73 188 2.0 4.0 0.00 0.01 0.00 92 1014.9
20260902110033 73 306 0.0 2.0 0.00 0.01 0.00 92 1015.1
20260902105519 73 306 1.0 4.0 0.00 0.01 0.00 92 1014.9
20260902105036 73 306 2.0 4.0 0.00 0.01 0.00 92 1015.3
20260902104531 73 306 2.0 4.0 0.00 0.01 0.00 92 1014.9
20260902104017 73 306 1.0 4.0 0.00 0.01 0.00 92 1014.8
20260902103533 74 306 2.0 3.0 0.00 0.01 0.00 92 1015.4
20260902103045 74 306 0.0 3.0 0.00 0.01 0.00 92 1015.0
20260902102539 74 306 1.0 8.0 0.00 0.01 0.00 92 1015.1
20260902102018 74 306 5.0 15.0 0.00 0.01 0.00 92 1015.3
20260902101553 74 317 2.0 15.0 0.00 0.01 0.00 92 1014.8
20260902101027 74 319 6.0 12.0 0.00 0.01 0.00 92 1015.3
20260902100521 74 225 0.0 2.0 0.00 0.01 0.00 92 1014.5
20260902100019 74 225 0.0 2.0 0.00 0.01 0.00 92 1014.6
20260902095530 74 225 0.0 1.0 0.00 0.01 0.00 92 1014.5
20260902095023 74 225 0.0 1.0 0.00 0.01 0.00 92 1014.6
20260902094519 74 225 0.0 2.0 0.00 0.01 0.00 92 1014.6
20260902094032 74 225 1.0 4.0 0.00 0.01 0.00 92 1014.7
20260902093524 74 225 2.0 4.0 0.00 0.01 0.00 92 1014.6
20260902093025 74 228 2.0 5.0 0.00 0.01 0.00 92 1014.8
20260902092520 74 360 1.0 2.0 0.00 0.01 0.00 93 1014.9
20260902092031 74 360 0.0 3.0 0.00 0.01 0.00 93 1014.9
20260902091520 74 360 1.0 4.0 0.00 0.01 0.00 93 1015.1
20260902091035 74 360 2.0 4.0 0.00 0.01 0.00 93 1015.0
20260902090529 74 219 1.0 5.0 0.00 0.01 0.00 93 1014.9
20260902090021 74 319 2.0 6.0 0.00 0.01 0.00 93 1014.8
20260902085531 74 9 4.0 8.0 0.00 0.01 0.00 93 1015.0
20260902085037 74 5 5.0 8.0 0.00 0.01 0.00 93 1015.0
20260902084518 74 304 1.0 4.0 0.00 0.01 0.00 93 1014.6
20260902084031 74 304 1.0 4.0 0.00 0.01 0.00 93 1014.6
20260902083518 74 304 1.0 3.0 0.00 0.01 0.00 93 1014.5
20260902083024 74 304 2.0 3.0 0.00 0.01 0.00 93 1014.4
20260902082534 73 304 2.0 4.0 0.00 0.01 0.00 93 1014.2
20260902082037 73 304 2.0 4.0 0.00 0.01 0.00 93 1014.2
20260902081526 73 304 3.0 4.0 0.00 0.01 0.00 93 1014.1
20260902081022 73 304 2.0 3.0 0.00 0.01 0.00 93 1014.3
20260902080537 73 304 2.0 3.0 0.00 0.01 0.00 93 1014.2
20260902080016 72 304 1.0 3.0 0.00 0.01 0.00 92 1014.1
20260902075536 72 304 1.0 2.0 0.00 0.01 0.00 92 1014.0
20260902075032 72 304 0.0 2.0 0.00 0.01 0.00 92 1014.1
20260902074534 72 304 0.0 1.0 0.00 0.01 0.00 91 1014.0
20260902074047 72 304 0.0 2.0 0.00 0.01 0.00 91 1013.9
20260902073520 72 304 1.0 2.0 0.00 0.01 0.00 91 1013.8
20260902073019 72 304 1.0 2.0 0.00 0.01 0.00 91 1013.8
20260902072557 72 304 0.0 2.0 0.00 0.01 0.00 91 1013.8
20260902072052 72 304 0.0 2.0 0.00 0.01 0.00 91 1013.8
20260902071542 72 304 0.0 0.0 0.00 0.01 0.00 91 1013.9
20260902071031 72 304 0.0 1.0 0.00 0.01 0.00 91 1014.0
20260902070527 73 304 0.0 1.0 0.00 0.01 0.00 91 1014.0
20260902070017 73 304 0.0 1.0 0.00 0.01 0.00 90 1014.1
20260902065533 73 304 0.0 1.0 0.00 0.01 0.00 90 1014.0
20260902065036 73 304 0.0 1.0 0.00 0.01 0.00 90 1014.1
20260902064020 73 304 0.0 0.0 0.00 0.01 0.00 90 1014.2
20260902063536 73 304 0.0 0.0 0.00 0.01 0.00 90 1014.2
20260902063027 73 304 0.0 0.0 0.00 0.01 0.00 90 1014.2
20260902062523 73 304 0.0 0.0 0.00 0.01 0.00 90 1014.4
20260902062018 73 304 0.0 0.0 0.00 0.01 0.00 90 1014.3
20260902061553 73 304 0.0 0.0 0.00 0.01 0.00 90 1014.3
20260902061027 73 304 0.0 0.0 0.00 0.01 0.00 89 1014.3
20260902060542 73 304 0.0 0.0 0.00 0.01 0.00 89 1014.3
20260902060036 73 304 0.0 0.0 0.00 0.01 0.00 89 1014.3
20260902055529 73 304 0.0 0.0 0.00 0.01 0.00 89 1014.3
20260902055022 73 304 0.0 0.0 0.00 0.01 0.00 89 1014.3
20260902054536 73 304 0.0 0.0 0.00 0.01 0.00 89 1014.2
20260902054018 73 304 0.0 0.0 0.00 0.01 0.00 89 1014.3
20260902053533 73 304 0.0 0.0 0.00 0.01 0.00 89 1014.3
20260902053033 73 304 0.0 2.0 0.00 0.01 0.00 88 1014.4
20260902052525 74 304 1.0 2.0 0.00 0.01 0.00 88 1014.4
20260902052021 74 304 1.0 2.0 0.00 0.01 0.00 87 1014.4
20260902051525 74 304 1.0 2.0 0.00 0.01 0.00 87 1014.3
20260902051040 74 304 2.0 2.0 0.00 0.01 0.00 86 1014.3
20260902050534 74 304 1.0 2.0 0.00 0.01 0.00 86 1014.3
20260902050033 74 304 0.0 1.0 0.00 0.01 0.01 86 1014.3
20260902045555 74 304 0.0 0.0 0.00 0.01 0.01 86 1014.3
20260902045018 74 304 0.0 0.0 0.00 0.01 0.01 86 1014.3
20260902044525 74 304 0.0 0.0 0.00 0.01 0.01 85 1014.4
20260902044023 74 304 0.0 0.0 0.00 0.01 0.01 85 1014.4
20260902043520 74 304 0.0 0.0 0.00 0.01 0.01 85 1014.4
20260902043033 75 304 0.0 0.0 0.00 0.01 0.01 85 1014.4
20260902042520 75 304 0.0 0.0 0.00 0.01 0.01 85 1014.5
20260902042033 75 304 0.0 2.0 0.00 0.01 0.01 85 1014.5
20260902041532 75 304 0.0 2.0 0.00 0.01 0.01 85 1014.5
20260902041027 75 304 0.0 3.0 0.00 0.01 0.01 85 1014.6
20260902040519 75 304 1.0 4.0 0.00 0.01 0.01 84 1014.6
20260902040035 75 304 1.0 4.0 0.00 0.01 0.01 85 1014.6
20260902035551 76 304 1.0 3.0 0.00 0.01 0.01 85 1014.6
20260902035025 76 304 0.0 2.0 0.00 0.01 0.01 85 1014.5
20260902034527 76 304 0.0 1.0 0.00 0.01 0.01 84 1014.5
20260902034021 76 304 0.0 2.0 0.00 0.01 0.01 84 1014.6
20260902033534 76 304 0.0 2.0 0.00 0.01 0.01 84 1014.5
20260902033033 76 304 0.0 2.0 0.00 0.01 0.01 84 1014.5
20260902032528 76 304 0.0 2.0 0.00 0.01 0.01 83 1014.5
20260902032019 76 304 0.0 3.0 0.00 0.01 0.01 83 1014.5
20260902031536 76 304 2.0 3.0 0.00 0.01 0.01 83 1014.4
20260902031026 76 304 2.0 3.0 0.00 0.01 0.01 84 1014.5
20260902030521 77 304 3.0 3.0 0.00 0.01 0.01 84 1014.6
20260902030053 77 304 3.0 3.0 0.00 0.01 0.01 85 1014.6
20260902025526 77 304 2.0 3.0 0.00 0.01 0.01 85 1014.7
20260902025020 77 304 2.0 3.0 0.00 0.01 0.01 86 1014.6
20260902024555 77 304 1.0 2.0 0.00 0.01 0.01 86 1014.6
20260902024019 78 304 1.0 2.0 0.00 0.01 0.01 86 1014.6
20260902023532 78 304 0.0 3.0 0.00 0.01 0.01 86 1014.5
20260902023022 78 304 2.0 3.0 0.00 0.01 0.01 86 1014.6
20260902022519 78 304 0.0 0.0 0.00 0.01 0.01 86 1014.7
20260902022034 78 304 0.0 0.0 0.00 0.01 0.01 86 1014.6
20260902021528 78 304 0.0 0.0 0.00 0.01 0.01 86 1014.8
20260902021022 78 304 0.0 1.0 0.00 0.01 0.01 86 1014.7
20260902020534 78 304 0.0 1.0 0.00 0.01 0.01 86 1014.6
20260902020052 78 304 0.0 2.0 0.00 0.01 0.01 86 1014.8
20260902015523 78 304 1.0 2.0 0.00 0.01 0.01 86 1014.6
20260902015032 78 304 1.0 1.0 0.00 0.01 0.01 86 1014.6
20260902014518 78 304 0.0 0.0 0.00 0.01 0.01 86 1014.6
20260902014032 78 304 0.0 0.0 0.00 0.01 0.01 86 1014.6
20260902013535 78 304 0.0 0.0 0.00 0.01 0.01 86 1014.5
20260902013033 79 304 0.0 1.0 0.00 0.01 0.01 86 1014.6
20260902012521 79 304 1.0 2.0 0.00 0.01 0.01 86 1014.6
20260902012032 79 304 1.0 2.0 0.00 0.01 0.01 86 1014.6
20260902011533 79 304 0.0 0.0 0.00 0.01 0.01 86 1014.5
20260902011024 79 304 0.0 0.0 0.00 0.01 0.01 85 1014.6
20260902010519 79 304 0.0 0.0 0.00 0.01 0.01 85 1014.6
20260902010048 79 304 0.0 0.0 0.00 0.01 0.01 85 1014.5
20260902005519 79 304 0.0 0.0 0.00 0.01 0.01 85 1014.4
20260902005054 79 304 0.0 0.0 0.00 0.01 0.01 85 1014.4
20260902004523 79 304 0.0 0.0 0.00 0.01 0.01 85 1014.3
20260902004038 80 304 0.0 2.0 0.00 0.01 0.01 85 1014.2
20260902003530 80 304 0.0 2.0 0.00 0.01 0.01 85 1014.3
20260902003034 81 304 0.0 3.0 0.00 0.01 0.01 84 1014.2
20260902002531 81 304 1.0 3.0 0.00 0.01 0.01 83 1014.3
20260902002036 82 304 2.0 3.0 0.00 0.01 0.01 83 1014.3
20260902001555 82 304 2.0 3.0 0.00 0.01 0.01 82 1014.4
20260902001021 82 304 2.0 3.0 0.00 0.01 0.01 83 1014.3
20260902000553 82 304 0.0 3.0 0.00 0.01 0.01 84 1014.3
20260902000032 83 304 0.0 3.0 0.00 0.01 0.01 85 1014.4
20260901235520 83 304 2.0 3.0 0.00 0.01 0.01 84 1014.3
20260901235035 83 304 2.0 3.0 0.00 0.01 0.01 82 1014.4
20260901234531 83 304 2.0 3.0 0.00 0.01 0.01 82 1014.4
20260901234026 83 304 2.0 4.0 0.00 0.01 0.01 81 1014.2
20260901233556 84 304 2.0 4.0 0.00 0.01 0.01 80 1014.2
20260901233025 84 304 2.0 3.0 0.00 0.01 0.01 80 1014.2
20260901232522 83 304 1.0 2.0 0.00 0.01 0.01 82 1014.2
20260901232038 84 304 0.0 2.0 0.00 0.01 0.01 81 1014.2
20260901231529 84 304 1.0 3.0 0.00 0.01 0.01 81 1014.3
20260901231022 84 304 0.0 4.0 0.00 0.01 0.01 82 1014.3
20260901230520 84 304 2.0 4.0 0.00 0.01 0.01 81 1014.2
20260901230042 84 304 3.0 4.0 0.00 0.01 0.01 82 1014.3
20260901225519 84 304 2.0 5.0 0.00 0.01 0.01 82 1014.4
20260901225022 85 304 3.0 5.0 0.00 0.01 0.01 82 1014.2
20260901224557 85 301 2.0 4.0 0.00 0.01 0.01 82 1014.3
20260901224027 85 301 3.0 5.0 0.00 0.01 0.01 81 1014.3
20260901223523 85 309 3.0 5.0 0.00 0.01 0.01 81 1014.3
20260901223019 85 248 2.0 4.0 0.00 0.01 0.01 82 1014.1
20260901222537 84 228 3.0 4.0 0.00 0.01 0.01 81 1014.0
20260901222033 84 226 2.0 6.0 0.00 0.01 0.01 81 1013.8
20260901221531 85 200 4.0 6.0 0.00 0.01 0.01 80 1013.7